When you browse on this site, cookies collect data to enhance your experience and personalize the content and advertising you see.
Visit our Privacy Policy to learn more. By continuing to use the site, you agree to this use of cookies and data.
  • în România
  • Lista ţărilor
  • Pe 7 zile
  • Temperatura apei
  • Hartă satelitară
  • Meteo pe hartă
  • Widget-uri
  • user-avatar
    Intrare

    Meteo pe oră la Iraklio

    Astăzi, 20 Mai, Luni

    Timp Temperatura Precipitaţii Vânt Presiune Umiditate
    00:00 +23°C° 0 mm 6 m/s 752 mmHg 32%
    01:00 +23°C° 0 mm 5 m/s 752 mmHg 35%
    02:00 +22°C° 0 mm 5 m/s 752 mmHg 38%
    03:00 +22°C° 0 mm 4 m/s 751 mmHg 41%
    04:00 +21°C° 0 mm 3 m/s 751 mmHg 44%
    05:00 +21°C° 0 mm 3 m/s 751 mmHg 47%
    06:00 +24°C° 0 mm 2 m/s 752 mmHg 45%
    07:00 +25°C° 0 mm 2 m/s 752 mmHg 44%
    08:00 +27°C° 0 mm 1 m/s 752 mmHg 43%
    09:00 +28°C° 0 mm 1 m/s 753 mmHg 40%
    10:00 +29°C° 0 mm 2 m/s 753 mmHg 38%
    11:00 +31°C° 0 mm 2 m/s 754 mmHg 35%
    12:00 +31°C° 0 mm 2 m/s 754 mmHg 36%
    13:00 +31°C° 0 mm 2 m/s 754 mmHg 37%
    14:00 +31°C° 0 mm 2 m/s 754 mmHg 38%
    15:00 +30°C° 0 mm 2 m/s 754 mmHg 40%
    16:00 +30°C° 0 mm 2 m/s 753 mmHg 42%
    17:00 +29°C° 0 mm 2 m/s 753 mmHg 45%
    18:00 +28°C° 0 mm 2 m/s 753 mmHg 48%
    19:00 +27°C° 0 mm 2 m/s 753 mmHg 51%
    20:00 +26°C° 0 mm 1 m/s 753 mmHg 54%
    21:00 +26°C° 0 mm 2 m/s 753 mmHg 52%
    22:00 +26°C° 0 mm 2 m/s 754 mmHg 49%
    23:00 +26°C° 0 mm 2 m/s 754 mmHg 47%

    Mâine, 21 Mai, Marţi

    Timp Temperatura Precipitaţii Vânt Presiune Umiditate
    00:00 +26°C° 0 mm 2 m/s 754 mmHg 44%
    01:00 +26°C° 0 mm 2 m/s 754 mmHg 41%
    02:00 +25°C° 0 mm 2 m/s 754 mmHg 39%
    03:00 +25°C° 0 mm 2 m/s 754 mmHg 41%
    04:00 +25°C° 0 mm 1 m/s 754 mmHg 42%
    05:00 +22°C° 0 mm 0 m/s 754 mmHg 44%
    06:00 +23°C° 0 mm 0 m/s 754 mmHg 44%
    07:00 +24°C° 0 mm 0 m/s 755 mmHg 43%
    08:00 +25°C° 0 mm 0 m/s 755 mmHg 42%
    09:00 +28°C° 0 mm 1 m/s 755 mmHg 40%
    10:00 +30°C° 0 mm 2 m/s 755 mmHg 37%
    11:00 +31°C° 0 mm 2 m/s 756 mmHg 35%
    12:00 +31°C° 0.1 mm 2 m/s 755 mmHg 36%
    13:00 +30°C° 0.1 mm 2 m/s 755 mmHg 38%
    14:00 +30°C° 0.1 mm 2 m/s 755 mmHg 40%
    15:00 +30°C° 0 mm 2 m/s 755 mmHg 40%
    16:00 +30°C° 0 mm 2 m/s 755 mmHg 40%
    17:00 +30°C° 0 mm 2 m/s 755 mmHg 40%
    18:00 +28°C° 0 mm 2 m/s 755 mmHg 47%
    19:00 +26°C° 0 mm 2 m/s 755 mmHg 54%
    20:00 +24°C° 0 mm 1 m/s 755 mmHg 61%
    21:00 +24°C° 0 mm 1 m/s 755 mmHg 63%
    22:00 +24°C° 0 mm 1 m/s 755 mmHg 64%
    23:00 +23°C° 0 mm 1 m/s 755 mmHg 65%

    Poimâine, 22 Mai, Miercuri

    Timp Temperatura Precipitaţii Vânt Presiune Umiditate
    00:00 +23°C° 0 mm 1 m/s 755 mmHg 65%
    01:00 +23°C° 0 mm 1 m/s 755 mmHg 65%
    02:00 +23°C° 0 mm 1 m/s 755 mmHg 65%
    03:00 +23°C° 0 mm 1 m/s 755 mmHg 65%
    04:00 +23°C° 0 mm 1 m/s 755 mmHg 64%
    05:00 +23°C° 0 mm 1 m/s 755 mmHg 64%
    06:00 +22°C° 0 mm 0 m/s 755 mmHg 60%
    07:00 +24°C° 0 mm 0 m/s 755 mmHg 55%
    08:00 +25°C° 0 mm 0 m/s 755 mmHg 50%
    09:00 +28°C° 0 mm 1 m/s 755 mmHg 47%
    10:00 +29°C° 0 mm 1 m/s 756 mmHg 45%
    11:00 +30°C° 0 mm 2 m/s 756 mmHg 42%
    12:00 +30°C° 0 mm 2 m/s 756 mmHg 42%
    13:00 +30°C° 0 mm 3 m/s 755 mmHg 42%
    14:00 +30°C° 0 mm 3 m/s 755 mmHg 41%
    15:00 +30°C° 0 mm 3 m/s 755 mmHg 45%
    16:00 +29°C° 0 mm 2 m/s 755 mmHg 48%
    17:00 +28°C° 0 mm 2 m/s 754 mmHg 51%
    18:00 +27°C° 0 mm 2 m/s 754 mmHg 55%
    19:00 +26°C° 0 mm 2 m/s 754 mmHg 60%
    20:00 +25°C° 0 mm 2 m/s 754 mmHg 64%
    21:00 +25°C° 0 mm 1 m/s 754 mmHg 63%
    22:00 +25°C° 0 mm 1 m/s 754 mmHg 63%
    23:00 +25°C° 0 mm 1 m/s 754 mmHg 62%

    23 Mai, Joi

    Timp Temperatura Precipitaţii Vânt Presiune Umiditate
    00:00 +25°C° 0 mm 1 m/s 754 mmHg 59%
    01:00 +25°C° 0 mm 1 m/s 753 mmHg 55%
    02:00 +25°C° 0 mm 1 m/s 753 mmHg 52%
    03:00 +25°C° 0 mm 1 m/s 753 mmHg 53%
    04:00 +24°C° 0 mm 2 m/s 752 mmHg 53%
    05:00 +24°C° 0 mm 2 m/s 752 mmHg 54%
    06:00 +25°C° 0 mm 2 m/s 752 mmHg 53%
    07:00 +25°C° 0 mm 2 m/s 752 mmHg 52%
    08:00 +26°C° 0 mm 3 m/s 753 mmHg 51%
    09:00 +27°C° 0 mm 3 m/s 752 mmHg 45%
    10:00 +29°C° 0 mm 2 m/s 752 mmHg 40%
    11:00 +30°C° 0 mm 2 m/s 752 mmHg 34%
    12:00 +31°C° 0 mm 3 m/s 751 mmHg 34%
    13:00 +31°C° 0 mm 3 m/s 751 mmHg 35%
    14:00 +32°C° 0 mm 4 m/s 750 mmHg 35%
    15:00 +30°C° 0 mm 4 m/s 750 mmHg 40%
    16:00 +29°C° 0 mm 4 m/s 750 mmHg 45%
    17:00 +28°C° 0 mm 4 m/s 749 mmHg 50%
    18:00 +27°C° 0 mm 3 m/s 749 mmHg 56%
    19:00 +25°C° 0 mm 3 m/s 749 mmHg 61%
    20:00 +24°C° 0 mm 3 m/s 749 mmHg 66%
    21:00 +24°C° 0.1 mm 3 m/s 749 mmHg 65%
    22:00 +24°C° 0.1 mm 2 m/s 749 mmHg 64%
    23:00 +24°C° 0.1 mm 2 m/s 749 mmHg 63%

    24 Mai, Vineri

    Timp Temperatura Precipitaţii Vânt Presiune Umiditate
    00:00 +22°C° 0.1 mm 3 m/s 749 mmHg 68%
    01:00 +21°C° 0.1 mm 3 m/s 748 mmHg 72%
    02:00 +20°C° 0.1 mm 4 m/s 748 mmHg 77%
    03:00 +20°C° 0 mm 4 m/s 748 mmHg 80%
    04:00 +20°C° 0 mm 4 m/s 748 mmHg 83%
    05:00 +19°C° 0 mm 4 m/s 748 mmHg 86%
    06:00 +21°C° 0 mm 4 m/s 748 mmHg 78%
    07:00 +22°C° 0 mm 4 m/s 749 mmHg 71%
    08:00 +23°C° 0 mm 4 m/s 749 mmHg 64%
    09:00 +25°C° 0 mm 4 m/s 749 mmHg 58%
    10:00 +26°C° 0 mm 4 m/s 749 mmHg 53%
    11:00 +28°C° 0 mm 4 m/s 749 mmHg 47%
    12:00 +28°C° 0 mm 4 m/s 749 mmHg 48%
    13:00 +28°C° 0 mm 4 m/s 749 mmHg 49%
    14:00 +28°C° 0 mm 5 m/s 749 mmHg 49%
    15:00 +27°C° 0 mm 5 m/s 749 mmHg 52%
    16:00 +27°C° 0 mm 5 m/s 749 mmHg 55%
    17:00 +26°C° 0 mm 5 m/s 749 mmHg 58%
    18:00 +23°C° 0 mm 5 m/s 750 mmHg 62%
    19:00 +22°C° 0 mm 4 m/s 750 mmHg 67%
    20:00 +20°C° 0 mm 4 m/s 750 mmHg 72%
    21:00 +20°C° 0 mm 3 m/s 750 mmHg 73%
    22:00 +19°C° 0 mm 3 m/s 751 mmHg 75%
    23:00 +19°C° 0 mm 3 m/s 751 mmHg 76%

    25 Mai, Sâmbătă

    Timp Temperatura Precipitaţii Vânt Presiune Umiditate
    00:00 +18°C° 0 mm 3 m/s 751 mmHg 77%
    01:00 +18°C° 0 mm 3 m/s 750 mmHg 78%
    02:00 +18°C° 0 mm 3 m/s 750 mmHg 79%
    03:00 +18°C° 0 mm 3 m/s 750 mmHg 80%
    04:00 +17°C° 0 mm 3 m/s 751 mmHg 81%
    05:00 +17°C° 0 mm 3 m/s 751 mmHg 82%
    06:00 +19°C° 0 mm 3 m/s 751 mmHg 74%
    07:00 +20°C° 0 mm 3 m/s 751 mmHg 67%
    08:00 +23°C° 0 mm 2 m/s 752 mmHg 59%
    09:00 +24°C° 0 mm 3 m/s 752 mmHg 55%
    10:00 +25°C° 0 mm 3 m/s 752 mmHg 51%
    11:00 +26°C° 0 mm 3 m/s 752 mmHg 47%
    12:00 +26°C° 0 mm 3 m/s 752 mmHg 48%
    13:00 +27°C° 0 mm 4 m/s 752 mmHg 49%
    14:00 +27°C° 0 mm 4 m/s 752 mmHg 50%
    15:00 +27°C° 0 mm 3 m/s 752 mmHg 53%
    16:00 +26°C° 0 mm 3 m/s 752 mmHg 55%
    17:00 +25°C° 0 mm 3 m/s 752 mmHg 58%
    18:00 +24°C° 0 mm 2 m/s 752 mmHg 64%
    19:00 +23°C° 0 mm 2 m/s 752 mmHg 69%
    20:00 +21°C° 0 mm 1 m/s 752 mmHg 75%
    21:00 +21°C° 0 mm 1 m/s 752 mmHg 76%
    22:00 +21°C° 0 mm 1 m/s 752 mmHg 78%
    23:00 +20°C° 0 mm 1 m/s 752 mmHg 80%
    Arată mai mult